[[{"header":{"parameterUnit":"m.s-1","parameterCategory":1,"la1":30.2991,"la2":30.254,"lo1":-89.0895,"lo2":-89.0444,"dy":0.0017,"dx":0.0017,"nx":28,"ny":28,"refTime":"2024-02-10T03:00:00:Z","depth":0,"parameterNumber":2,"parameterNumberName":"U-component_of_WINDS"},"data":[0,0,0,0,0,0,0,0,0,0,0,0,0,0,0,0,0,0,0,0,0,0,0,0,0,0,0,0,0,0,0,0,0,0,0,0,0,0,0,0,0,0,0,0,0,0,0,0,0,0,0,0,0,0,0,0,0,0,-2.6534,-2.6535,0,-2.6656,-2.6657,-2.6659,-2.6645,-2.6643,-2.6641,-2.6639,-2.678,-2.6785,-2.6791,0,0,0,0,0,0,0,0,0,0,0,0,0,-2.6304,-2.6308,-2.6534,-2.6535,-2.6537,-2.6656,-2.6657,-2.6659,-2.6645,-2.6643,-2.664,-2.6638,-2.6778,-2.6785,-2.6791,0,0,0,0,0,0,0,0,0,0,0,0,0,-2.6413,-2.6309,-2.6534,-2.6544,-2.6546,-2.6655,-2.6657,-2.6659,-2.6646,-2.6643,-2.664,-2.6637,-2.6776,-2.6784,-2.6792,-2.6904,0,0,-2.6818,-2.6822,0,0,0,0,0,0,0,0,-2.6407,-2.6422,-2.6541,-2.6543,-2.6546,-2.6632,-2.6628,-2.6742,-2.6646,-2.6608,-2.6639,-2.6635,-2.6734,-2.6746,-2.6776,-2.6911,-2.6917,-2.6819,-2.6824,-2.6828,-2.683,0,0,0,0,0,0,0,-2.6399,-2.6416,-2.6583,-2.6543,-2.6546,-2.6547,-2.656,-2.6649,-2.6687,-2.6611,-2.6611,-2.6624,-2.6735,-2.6768,-2.6779,-2.6919,-2.6819,-2.6826,-2.6831,-2.6835,-2.7154,-2.7157,0,0,0,0,0,0,-2.6387,-2.641,-2.6579,-2.6586,-2.6467,-2.6554,-2.6567,-2.6608,-2.6686,-2.6695,-2.6627,-2.6623,-2.6755,-2.6769,-2.6784,-2.692,-2.6827,-2.6835,-2.684,-2.7151,-2.7155,-2.7159,0,0,0,0,0,0,-2.6382,-2.6402,-2.6574,-2.6498,-2.652,-2.6561,-2.6606,-2.6611,-2.6644,-2.6697,-2.6706,-2.6652,-2.6753,-2.6772,-2.6873,-2.6925,-2.6839,-2.6847,-2.7147,-2.7152,-2.7157,-2.7193,0,0,0,0,0,0,-2.6375,-2.64,-2.6439,-2.6499,-2.6524,-2.6657,-2.6609,-2.6616,-2.6656,-2.6653,-2.6723,-2.6732,-2.6752,-2.6861,-2.6882,-2.6935,-2.6853,-2.7142,-2.7149,-2.7155,-2.7188,-2.7199,-2.7209,0,0,0,0,0,-2.6367,-2.6448,-2.6441,-2.6462,-2.6573,-2.6659,-2.6674,-2.6691,-2.666,-2.6703,-2.6737,-2.673,-2.6916,-2.6871,-2.6895,-2.6951,-2.7139,-2.7147,-2.7155,-2.7183,-2.7197,-2.7209,0,0,0,0,0,0,-2.6399,-2.6456,-2.6449,-2.6551,-2.66,-2.6657,-2.671,-2.6705,-2.6768,-2.6762,-2.6786,-2.6802,-2.6904,-2.6939,-2.6888,-2.7065,-2.7024,-2.7037,-2.7038,-2.7052,-2.7062,-2.7052,-2.686,0,0,0,0,0,-2.6417,-2.6478,-2.6526,-2.6612,-2.6636,-2.6669,-2.6707,-2.6715,-2.6769,-2.6792,-2.6834,-2.6891,-2.6962,-2.7009,-2.7078,-2.7193,-2.721,-2.7244,-2.7254,-2.7263,-2.7274,-2.7339,-2.7355,-2.7184,-2.7184,-2.7184,0,0,-2.6457,-2.6495,-2.6533,-2.6619,-2.6658,-2.6725,-2.6687,-2.6759,-2.681,-2.6805,-2.6901,-2.6934,-2.7,-2.7109,-2.7159,-2.7141,-2.7325,-2.7273,-2.7279,-2.7286,-2.7349,-2.7365,-2.738,-2.7189,-2.7188,-2.7187,0,0,-2.6562,-2.6596,-2.6671,-2.671,-2.6767,-2.6789,-2.6807,-2.6865,-2.6885,-2.6981,-2.6978,-2.7043,-2.7165,-2.7212,-2.7252,-2.7376,-2.7373,-2.7398,-2.7454,-2.7517,-2.7531,-2.7543,-2.7588,-2.7604,-2.7409,-2.7409,-2.7409,0,-2.6605,-2.67,-2.6711,-2.6783,-2.6823,-2.6815,-2.6894,-2.6933,-2.7013,-2.7042,-2.7019,-2.7171,-2.7216,-2.7336,-2.7366,-2.7398,-2.7423,-2.739,-2.7527,-2.7539,-2.7551,-2.7594,-2.7611,-2.7412,-2.7412,-2.7411,-2.7411,0,-2.6751,-2.6818,-2.6872,-2.6943,-2.6989,-2.7064,-2.7091,-2.7137,-2.7142,-2.7167,-2.7267,-2.732,-2.7399,-2.7428,-2.7436,-2.7551,-2.7537,-2.7521,-2.748,-2.7569,-2.7611,-2.7628,-2.7416,-2.7415,-2.7414,-2.7413,0,0,-2.688,-2.6954,-2.6974,-2.7007,-2.707,-2.7124,-2.7202,-2.7273,-2.7313,-2.737,-2.7437,-2.754,-2.7524,-2.757,-2.7584,-2.7639,-2.7735,-2.7616,-2.7618,-2.7637,-2.7868,-2.7879,-2.7898,-2.7733,-2.7737,-2.7739,-2.7862,0,-2.6992,-2.712,-2.7133,-2.7251,-2.7314,-2.7309,-2.7377,-2.7426,-2.7452,-2.7514,-2.7546,-2.7619,-2.7592,-2.7619,-2.7674,-2.7712,-2.7782,-2.7703,-2.7801,-2.7804,-2.7783,-2.792,-2.7932,-2.8045,-2.7878,-2.7881,-2.7883,0,-2.7139,-2.7193,-2.7316,-2.737,-2.7397,-2.7457,-2.7524,-2.7582,-2.764,-2.7656,-2.7706,-2.7712,-2.7797,-2.7753,-2.7872,-2.7818,-2.7859,-2.7884,-2.7889,-2.7899,-2.7848,-2.7934,-2.8082,-2.8099,-2.7909,-2.7907,-2.7905,0,-2.7221,-2.7325,-2.7412,-2.744,-2.7506,-2.7548,-2.7579,-2.7632,-2.7675,-2.7737,-2.7766,-2.7839,-2.7879,-2.7938,-2.7966,-2.7931,-2.8084,-2.8042,-2.8103,-2.8102,-2.8135,-2.8133,-2.8292,-2.8162,-2.8162,-2.8161,-2.8161,0,-2.7344,-2.742,-2.7449,-2.7503,-2.7588,-2.7605,-2.7691,-2.7721,-2.7769,-2.7832,-2.7835,-2.7895,-2.7927,-2.7994,-2.8018,-2.8114,-2.8133,-2.8151,-2.8156,-2.815,-2.8148,-2.8178,-2.8171,-2.8166,-2.8165,-2.8164,-2.8163,0,-2.745,-2.7472,-2.7566,-2.762,-2.7635,-2.7696,-2.7745,-2.7799,-2.7825,-2.7904,-2.7925,-2.7967,-2.8046,-2.8079,-2.8178,-2.8194,-2.8304,-2.8304,-2.8282,-2.8284,-2.8343,-2.8337,-2.8527,-2.8553,-2.8406,-2.8407,-2.8408,0,-2.7526,-2.7583,-2.7642,-2.7681,-2.7711,-2.7776,-2.7818,-2.7838,-2.7883,-2.7953,-2.8,-2.8078,-2.814,-2.8268,-2.8311,-2.8387,-2.8389,-2.8451,-2.8401,-2.8394,-2.8391,-2.8387,-2.8394,-2.846,-2.8461,-2.8462,-2.8463,0,-2.7661,-2.7669,-2.7726,-2.7789,-2.7838,-2.789,-2.7941,-2.7975,-2.8004,-2.8055,-2.8132,-2.8181,-2.8279,-2.8357,-2.8436,-2.8474,-2.8476,-2.8478,-2.8497,-2.8491,-2.8476,-2.8485,-2.8307,-2.8474,-2.8473,-2.8472,-2.8472,-2.8471,-2.7755,-2.7805,-2.7853,-2.7919,-2.7958,-2.8005,-2.8058,-2.8089,-2.8152,-2.8229,-2.8239,-2.8323,-2.8382,-2.8487,-2.8528,-2.8597,-2.8582,-2.8609,-2.8615,-2.8622,-2.8625,-2.8465,-2.8612,-2.8612,-2.8612,-2.8612,-2.8611,0,-2.7889,-2.7919,-2.7979,-2.8047,-2.8099,-2.809,-2.8146,-2.8192,-2.8264,-2.8316,-2.8376,-2.8467,-2.8543,-2.8592,-2.867,-2.8716,-2.8719,-2.8736,-2.8733,-2.8742,-2.8634,-2.861,-2.8733,-2.8733,-2.8733,-2.8733,-2.8733,-2.8733,-2.7965,-2.8049,-2.8064,-2.817,-2.8201,-2.8278,-2.8311,-2.8357,-2.8398,-2.8496,-2.8557,-2.8586,-2.8639,-2.8721,-2.8792,-2.8805,-2.8835,-2.8853,-2.8865,-2.8763,-2.875,-2.8738,-2.8716,-2.8859,-2.8859,-2.8968,-2.8969,-2.897]},{"header":{"parameterUnit":"m.s-1","parameterCategory":1,"la1":30.2991,"la2":30.254,"lo1":-89.0895,"lo2":-89.0444,"dy":0.0017,"dx":0.0017,"nx":28,"ny":28,"refTime":"2024-02-10T03:00:00:Z","depth":0,"parameterNumber":3,"parameterNumberName":"V-component_of_WINDS"},"data":[0,0,0,0,0,0,0,0,0,0,0,0,0,0,0,0,0,0,0,0,0,0,0,0,0,0,0,0,0,0,0,0,0,0,0,0,0,0,0,0,0,0,0,0,0,0,0,0,0,0,0,0,0,0,0,0,0,0,-1.2799,-1.2797,0,-1.2594,-1.2592,-1.259,-1.2501,-1.2502,-1.2502,-1.2502,-1.2273,-1.2267,-1.226,0,0,0,0,0,0,0,0,0,0,0,0,0,-1.3089,-1.3084,-1.2799,-1.2797,-1.2794,-1.2595,-1.2592,-1.2589,-1.2501,-1.2502,-1.2502,-1.2503,-1.2275,-1.2268,-1.226,0,0,0,0,0,0,0,0,0,0,0,0,0,-1.2931,-1.3083,-1.2799,-1.2727,-1.2718,-1.2595,-1.2592,-1.2588,-1.2501,-1.2502,-1.2502,-1.2503,-1.2278,-1.2268,-1.2259,-1.2187,0,0,-1.2229,-1.2225,0,0,0,0,0,0,0,0,-1.294,-1.2921,-1.274,-1.2731,-1.2722,-1.2574,-1.261,-1.2453,-1.2501,-1.2583,-1.2502,-1.2503,-1.2371,-1.2354,-1.2314,-1.2177,-1.2167,-1.2228,-1.2222,-1.2218,-1.2215,0,0,0,0,0,0,0,-1.2951,-1.2929,-1.2717,-1.2737,-1.2726,-1.2696,-1.2674,-1.258,-1.2476,-1.2576,-1.2569,-1.2547,-1.2366,-1.2324,-1.2308,-1.2163,-1.2229,-1.222,-1.2214,-1.221,-1.1944,-1.1943,0,0,0,0,0,0,-1.2977,-1.2939,-1.2724,-1.2711,-1.2835,-1.269,-1.2666,-1.2621,-1.2477,-1.2456,-1.2547,-1.2544,-1.234,-1.2319,-1.2299,-1.2199,-1.2218,-1.2209,-1.2204,-1.1945,-1.1943,-1.1942,0,0,0,0,0,0,-1.2984,-1.2959,-1.2732,-1.2823,-1.2792,-1.2685,-1.2634,-1.2616,-1.2574,-1.2455,-1.2434,-1.2524,-1.2339,-1.2313,-1.2214,-1.219,-1.2205,-1.2196,-1.1946,-1.1944,-1.1943,-1.2004,0,0,0,0,0,0,-1.2993,-1.2962,-1.2941,-1.2824,-1.2788,-1.2659,-1.2633,-1.2612,-1.2559,-1.2553,-1.2428,-1.2407,-1.2338,-1.223,-1.2205,-1.2177,-1.2188,-1.1948,-1.1946,-1.1943,-1.2003,-1.2004,-1.2005,0,0,0,0,0,-1.3003,-1.2964,-1.294,-1.2915,-1.276,-1.2658,-1.2637,-1.2564,-1.2558,-1.2531,-1.2452,-1.2411,-1.2197,-1.222,-1.2192,-1.2161,-1.1949,-1.1946,-1.1944,-1.2003,-1.2004,-1.2005,0,0,0,0,0,0,-1.3076,-1.2947,-1.292,-1.2843,-1.2763,-1.2644,-1.2608,-1.2569,-1.2484,-1.2481,-1.2387,-1.2359,-1.2266,-1.2203,-1.2231,-1.2078,-1.2069,-1.206,-1.2123,-1.2123,-1.2124,-1.214,-1.218,0,0,0,0,0,-1.3084,-1.302,-1.2908,-1.285,-1.2812,-1.2717,-1.267,-1.262,-1.2531,-1.2495,-1.241,-1.2318,-1.2229,-1.2173,-1.2085,-1.1993,-1.1958,-1.1956,-1.1957,-1.1958,-1.1951,-1.1887,-1.1882,-1.1933,-1.1933,-1.1933,0,0,-1.3098,-1.302,-1.2985,-1.2863,-1.2795,-1.2722,-1.2689,-1.2615,-1.2557,-1.2481,-1.2384,-1.2317,-1.2207,-1.211,-1.2062,-1.2054,-1.1929,-1.1955,-1.1957,-1.1948,-1.1884,-1.1879,-1.1875,-1.1931,-1.1931,-1.1931,0,0,-1.3087,-1.3025,-1.2967,-1.2899,-1.2798,-1.2733,-1.2719,-1.2604,-1.2559,-1.246,-1.2399,-1.2323,-1.2175,-1.2097,-1.2038,-1.1987,-1.1941,-1.196,-1.1963,-1.1902,-1.1898,-1.1894,-1.1868,-1.1861,-1.1953,-1.1954,-1.1954,0,-1.3116,-1.3013,-1.294,-1.2869,-1.2812,-1.2744,-1.2678,-1.2613,-1.2485,-1.2444,-1.2438,-1.2244,-1.2166,-1.2045,-1.2032,-1.1988,-1.1961,-1.1974,-1.1906,-1.1901,-1.1896,-1.187,-1.1862,-1.1956,-1.1956,-1.1956,-1.1955,0,-1.3049,-1.2976,-1.294,-1.2823,-1.2762,-1.2694,-1.2602,-1.2547,-1.25,-1.2433,-1.2326,-1.2229,-1.2117,-1.2084,-1.2037,-1.1952,-1.1949,-1.1926,-1.1914,-1.1895,-1.1869,-1.1859,-1.196,-1.1959,-1.1958,-1.1958,0,0,-1.3083,-1.2923,-1.2911,-1.2853,-1.2732,-1.267,-1.2592,-1.2488,-1.2439,-1.235,-1.2277,-1.2148,-1.2123,-1.2056,-1.1997,-1.1944,-1.1899,-1.1925,-1.192,-1.1918,-1.1789,-1.1806,-1.1797,-1.1868,-1.1866,-1.1865,-1.1796,0,-1.3051,-1.2921,-1.2849,-1.2743,-1.2669,-1.2598,-1.2529,-1.2441,-1.2374,-1.2294,-1.2216,-1.2125,-1.2103,-1.206,-1.2004,-1.1917,-1.1871,-1.1921,-1.179,-1.1786,-1.1818,-1.1784,-1.1803,-1.1744,-1.1786,-1.1784,-1.1783,0,-1.3,-1.2917,-1.2806,-1.2686,-1.2651,-1.2593,-1.2485,-1.2413,-1.2307,-1.226,-1.2182,-1.2122,-1.2026,-1.2022,-1.1883,-1.1918,-1.1858,-1.1806,-1.1801,-1.1784,-1.1783,-1.1761,-1.1724,-1.1714,-1.1768,-1.1769,-1.177,0,-1.303,-1.2888,-1.2802,-1.2755,-1.2614,-1.2573,-1.251,-1.2406,-1.2344,-1.2246,-1.2203,-1.2094,-1.2033,-1.1944,-1.1851,-1.1859,-1.1717,-1.1708,-1.1667,-1.167,-1.1641,-1.1644,-1.159,-1.1609,-1.1609,-1.1609,-1.1609,0,-1.3002,-1.2935,-1.2812,-1.2759,-1.2677,-1.259,-1.2509,-1.2439,-1.2345,-1.2268,-1.2197,-1.2124,-1.2009,-1.1918,-1.1844,-1.1734,-1.1708,-1.166,-1.1641,-1.1665,-1.1671,-1.1624,-1.1624,-1.1606,-1.1607,-1.1607,-1.1608,0,-1.3022,-1.2939,-1.2838,-1.2713,-1.2678,-1.2623,-1.251,-1.2449,-1.2376,-1.2279,-1.225,-1.2132,-1.2021,-1.192,-1.1772,-1.172,-1.1606,-1.1584,-1.1645,-1.1634,-1.1597,-1.16,-1.1509,-1.1488,-1.1526,-1.1526,-1.1525,0,-1.301,-1.2957,-1.2825,-1.2772,-1.2712,-1.2627,-1.2564,-1.2471,-1.2406,-1.2276,-1.2227,-1.2112,-1.2016,-1.1838,-1.1733,-1.1615,-1.1586,-1.1562,-1.1568,-1.1591,-1.1578,-1.1582,-1.1571,-1.1562,-1.1562,-1.1563,-1.1563,0,-1.2994,-1.2953,-1.287,-1.2767,-1.2695,-1.2609,-1.2519,-1.2477,-1.2364,-1.2292,-1.2181,-1.2106,-1.1953,-1.1835,-1.1704,-1.1628,-1.1572,-1.1561,-1.1544,-1.1568,-1.1603,-1.1577,-1.1642,-1.1564,-1.1564,-1.1564,-1.1564,-1.1564,-1.2994,-1.294,-1.2838,-1.2743,-1.2666,-1.2582,-1.2517,-1.2435,-1.2343,-1.2216,-1.2163,-1.2047,-1.1929,-1.1749,-1.1672,-1.1571,-1.1561,-1.1539,-1.1532,-1.1527,-1.1528,-1.1622,-1.1547,-1.1547,-1.1547,-1.1547,-1.1547,0,-1.297,-1.2899,-1.2813,-1.2691,-1.2613,-1.2574,-1.247,-1.2404,-1.2306,-1.2205,-1.2111,-1.1975,-1.1858,-1.1741,-1.1614,-1.1555,-1.1526,-1.1525,-1.1526,-1.1507,-1.1549,-1.1574,-1.155,-1.155,-1.155,-1.155,-1.155,-1.155,-1.2949,-1.2854,-1.28,-1.2661,-1.2587,-1.2479,-1.2421,-1.2339,-1.2257,-1.2112,-1.2017,-1.1943,-1.183,-1.1694,-1.1579,-1.1547,-1.15,-1.1505,-1.1465,-1.1505,-1.1506,-1.1507,-1.1529,-1.1497,-1.1497,-1.1431,-1.143,-1.143]}]]